Time,TemperatureF,DewpointF,PressureIn,WindDirection,WindDirectionDegrees,WindSpeedMPH,WindSpeedGustMPH,Humidity,HourlyPrecipIn,Conditions,Clouds,dailyrainin,SoftwareType,DateUTC
2013-08-19 00:01:00,61.0,58.0,30.21,SE,135,2.0,7.0,91,0.00,,,0.00,Rainwise IP-100,2013-08-19 04:01:00,
2013-08-19 00:06:00,59.0,57.0,30.21,South,180,4.0,5.0,94,0.00,,,0.00,Rainwise IP-100,2013-08-19 04:06:00,
2013-08-19 00:11:00,61.0,58.0,30.21,SE,135,6.0,7.0,90,0.00,,,0.00,Rainwise IP-100,2013-08-19 04:11:00,
2013-08-19 00:16:00,61.0,58.0,30.21,SSE,157,6.0,7.0,90,0.00,,,0.00,Rainwise IP-100,2013-08-19 04:16:00,
2013-08-19 00:21:00,62.0,58.0,30.20,South,180,7.0,8.0,88,0.00,,,0.00,Rainwise IP-100,2013-08-19 04:21:00,
2013-08-19 00:26:00,61.0,57.0,30.20,South,180,6.0,11.0,89,0.00,,,0.00,Rainwise IP-100,2013-08-19 04:26:00,
2013-08-19 00:31:00,61.0,58.0,30.21,SSE,157,6.0,8.0,90,0.00,,,0.00,Rainwise IP-100,2013-08-19 04:31:00,
2013-08-19 00:36:00,61.0,58.0,30.21,SSE,157,6.0,7.0,90,0.00,,,0.00,Rainwise IP-100,2013-08-19 04:36:00,
2013-08-19 00:41:00,61.0,58.0,30.21,SSE,157,6.0,7.0,90,0.00,,,0.00,Rainwise IP-100,2013-08-19 04:41:00,
2013-08-19 00:46:00,61.0,59.0,30.21,SSE,157,6.0,7.0,92,0.00,,,0.00,Rainwise IP-100,2013-08-19 04:46:00,
2013-08-19 00:51:00,61.0,59.0,30.21,SSE,157,6.0,7.0,93,0.00,,,0.00,Rainwise IP-100,2013-08-19 04:51:00,
2013-08-19 00:56:00,60.0,57.0,30.21,South,180,4.0,6.0,93,0.00,,,0.00,Rainwise IP-100,2013-08-19 04:56:00,
2013-08-19 01:01:00,60.0,57.0,30.21,SSW,202,3.0,6.0,93,0.00,,,0.00,Rainwise IP-100,2013-08-19 05:01:00,
2013-08-19 01:06:00,60.0,58.0,30.21,SSW,202,6.0,6.0,95,0.00,,,0.00,Rainwise IP-100,2013-08-19 05:06:00,
2013-08-19 01:11:00,59.0,57.0,30.21,SSW,202,5.0,6.0,95,0.00,,,0.00,Rainwise IP-100,2013-08-19 05:11:00,
2013-08-19 01:16:00,59.0,58.0,30.21,SSE,157,5.0,60.0,97,0.00,,,0.00,Rainwise IP-100,2013-08-19 05:16:00,
2013-08-19 01:21:00,59.0,57.0,30.21,South,180,7.0,8.0,96,0.00,,,0.00,Rainwise IP-100,2013-08-19 05:21:00,
2013-08-19 01:26:00,59.0,57.0,30.21,SSW,202,6.0,8.0,96,0.00,,,0.00,Rainwise IP-100,2013-08-19 05:26:00,
2013-08-19 01:31:00,59.0,58.0,30.21,South,180,5.0,7.0,97,0.00,,,0.00,Rainwise IP-100,2013-08-19 05:31:00,
2013-08-19 01:36:00,59.0,57.0,30.21,SSE,157,5.0,7.0,96,0.00,,,0.00,Rainwise IP-100,2013-08-19 05:36:00,
2013-08-19 01:41:00,59.0,57.0,30.21,SSE,157,0.0,7.0,96,0.00,,,0.00,Rainwise IP-100,2013-08-19 05:41:00,
2013-08-19 01:46:00,59.0,58.0,30.21,South,180,6.0,6.0,98,0.00,,,0.00,Rainwise IP-100,2013-08-19 05:46:00,
2013-08-19 01:51:00,59.0,58.0,30.21,SW,225,2.0,6.0,97,0.00,,,0.00,Rainwise IP-100,2013-08-19 05:51:00,
2013-08-19 01:56:00,59.0,58.0,30.21,SSE,157,3.0,6.0,98,0.00,,,0.00,Rainwise IP-100,2013-08-19 05:56:00,
2013-08-19 02:01:00,58.0,57.0,30.20,SSW,202,6.0,6.0,97,0.00,,,0.00,Rainwise IP-100,2013-08-19 06:01:00,
2013-08-19 02:06:00,58.0,57.0,30.20,SSW,202,6.0,6.0,98,0.00,,,0.00,Rainwise IP-100,2013-08-19 06:06:00,
2013-08-19 02:11:00,57.0,56.0,30.21,SSE,157,0.0,6.0,98,0.00,,,0.00,Rainwise IP-100,2013-08-19 06:11:00,
2013-08-19 02:16:00,56.0,55.0,30.21,ESE,112,0.0,4.0,97,0.00,,,0.00,Rainwise IP-100,2013-08-19 06:16:00,
2013-08-19 02:21:00,56.0,55.0,30.21,NW,315,5.0,5.0,97,0.00,,,0.00,Rainwise IP-100,2013-08-19 06:21:00,
2013-08-19 02:26:00,55.0,54.0,30.21,NW,315,0.0,5.0,97,0.00,,,0.00,Rainwise IP-100,2013-08-19 06:26:00,
2013-08-19 02:31:00,56.0,55.0,30.21,NW,315,0.0,3.0,97,0.00,,,0.00,Rainwise IP-100,2013-08-19 06:31:00,
2013-08-19 02:36:00,56.0,55.0,30.21,South,180,5.0,6.0,97,0.00,,,0.00,Rainwise IP-100,2013-08-19 06:36:00,
2013-08-19 02:41:00,56.0,55.0,30.21,WSW,247,0.0,6.0,97,0.00,,,0.00,Rainwise IP-100,2013-08-19 06:41:00,
2013-08-19 02:46:00,56.0,55.0,30.21,South,180,2.0,2.0,97,0.00,,,0.00,Rainwise IP-100,2013-08-19 06:46:00,
2013-08-19 02:51:00,56.0,55.0,30.21,NW,315,2.0,6.0,97,0.00,,,0.00,Rainwise IP-100,2013-08-19 06:51:00,
2013-08-19 02:56:00,55.0,54.0,30.21,NW,315,0.0,5.0,97,0.00,,,0.00,Rainwise IP-100,2013-08-19 06:56:00,
2013-08-19 03:01:00,55.0,54.0,30.21,East,90,0.0,2.0,97,0.00,,,0.00,Rainwise IP-100,2013-08-19 07:01:00,
2013-08-19 03:06:00,55.0,54.0,30.21,ESE,112,4.0,4.0,97,0.00,,,0.00,Rainwise IP-100,2013-08-19 07:06:00,
2013-08-19 03:11:00,55.0,54.0,30.21,SE,135,0.0,5.0,97,0.00,,,0.00,Rainwise IP-100,2013-08-19 07:11:00,
2013-08-19 03:16:00,55.0,54.0,30.21,South,180,3.0,4.0,97,0.00,,,0.00,Rainwise IP-100,2013-08-19 07:16:00,
2013-08-19 03:21:00,55.0,54.0,30.20,SW,225,2.0,5.0,97,0.00,,,0.00,Rainwise IP-100,2013-08-19 07:21:00,
2013-08-19 03:26:00,55.0,54.0,30.20,SSW,202,6.0,6.0,97,0.00,,,0.00,Rainwise IP-100,2013-08-19 07:26:00,
2013-08-19 03:31:00,55.0,54.0,30.20,SW,225,1.0,6.0,97,0.00,,,0.00,Rainwise IP-100,2013-08-19 07:31:00,
2013-08-19 03:36:00,55.0,54.0,30.20,SSW,202,0.0,5.0,97,0.00,,,0.00,Rainwise IP-100,2013-08-19 07:36:00,
2013-08-19 03:41:00,54.0,53.0,30.20,South,180,1.0,3.0,97,0.00,,,0.00,Rainwise IP-100,2013-08-19 07:41:00,
2013-08-19 03:46:00,54.0,53.0,30.20,South,180,2.0,3.0,97,0.00,,,0.00,Rainwise IP-100,2013-08-19 07:46:00,
2013-08-19 03:51:00,54.0,53.0,30.20,South,180,1.0,2.0,97,0.00,,,0.00,Rainwise IP-100,2013-08-19 07:51:00,
2013-08-19 03:56:00,54.0,53.0,30.20,WSW,247,1.0,3.0,97,0.00,,,0.00,Rainwise IP-100,2013-08-19 07:56:00,
2013-08-19 04:01:00,54.0,53.0,30.20,SSE,157,4.0,6.0,97,0.00,,,0.00,Rainwise IP-100,2013-08-19 08:01:00,
2013-08-19 04:06:00,55.0,54.0,30.19,South,180,0.0,6.0,97,0.00,,,0.00,Rainwise IP-100,2013-08-19 08:06:00,
2013-08-19 04:11:00,54.0,53.0,30.19,WSW,247,1.0,3.0,97,0.00,,,0.00,Rainwise IP-100,2013-08-19 08:11:00,
2013-08-19 04:16:00,54.0,53.0,30.19,WSW,247,3.0,3.0,97,0.00,,,0.00,Rainwise IP-100,2013-08-19 08:16:00,
2013-08-19 04:21:00,54.0,53.0,30.19,WSW,247,1.0,4.0,97,0.00,,,0.00,Rainwise IP-100,2013-08-19 08:21:00,
2013-08-19 04:26:00,54.0,53.0,30.19,WSW,247,0.0,3.0,97,0.00,,,0.00,Rainwise IP-100,2013-08-19 08:26:00,
2013-08-19 04:31:00,54.0,53.0,30.19,SE,135,1.0,3.0,97,0.00,,,0.00,Rainwise IP-100,2013-08-19 08:31:00,
2013-08-19 04:36:00,54.0,53.0,30.19,SE,135,0.0,2.0,97,0.00,,,0.00,Rainwise IP-100,2013-08-19 08:36:00,
2013-08-19 04:41:00,54.0,53.0,30.19,SW,225,2.0,4.0,97,0.00,,,0.00,Rainwise IP-100,2013-08-19 08:41:00,
2013-08-19 04:46:00,54.0,53.0,30.19,SSW,202,3.0,3.0,97,0.00,,,0.00,Rainwise IP-100,2013-08-19 08:46:00,
2013-08-19 04:51:00,54.0,53.0,30.19,SW,225,0.0,4.0,97,0.00,,,0.00,Rainwise IP-100,2013-08-19 08:51:00,
2013-08-19 04:56:00,54.0,53.0,30.19,SW,225,2.0,2.0,97,0.00,,,0.00,Rainwise IP-100,2013-08-19 08:56:00,
2013-08-19 05:01:00,54.0,53.0,30.19,SW,225,3.0,4.0,97,0.00,,,0.00,Rainwise IP-100,2013-08-19 09:01:00,
2013-08-19 05:06:00,54.0,53.0,30.19,SSW,202,4.0,5.0,97,0.00,,,0.00,Rainwise IP-100,2013-08-19 09:06:00,
2013-08-19 05:11:00,54.0,53.0,30.19,WSW,247,1.0,5.0,97,0.00,,,0.00,Rainwise IP-100,2013-08-19 09:11:00,
2013-08-19 05:16:00,54.0,53.0,30.19,SW,225,1.0,5.0,97,0.00,,,0.00,Rainwise IP-100,2013-08-19 09:16:00,
2013-08-19 05:21:00,55.0,54.0,30.19,WNW,292,5.0,5.0,97,0.00,,,0.00,Rainwise IP-100,2013-08-19 09:21:00,
2013-08-19 05:26:00,55.0,54.0,30.19,SW,225,5.0,6.0,97,0.00,,,0.00,Rainwise IP-100,2013-08-19 09:26:00,
2013-08-19 05:31:00,55.0,54.0,30.18,SW,225,4.0,5.0,97,0.00,,,0.00,Rainwise IP-100,2013-08-19 09:31:00,
2013-08-19 05:36:00,54.0,53.0,30.18,West,270,3.0,6.0,97,0.00,,,0.00,Rainwise IP-100,2013-08-19 09:36:00,
2013-08-19 05:41:00,55.0,54.0,30.18,SW,225,4.0,6.0,97,0.00,,,0.00,Rainwise IP-100,2013-08-19 09:41:00,
2013-08-19 05:46:00,54.0,53.0,30.18,SW,225,5.0,6.0,97,0.00,,,0.00,Rainwise IP-100,2013-08-19 09:46:00,
2013-08-19 05:51:00,54.0,53.0,30.19,SW,225,6.0,6.0,97,0.00,,,0.00,Rainwise IP-100,2013-08-19 09:51:00,
2013-08-19 05:56:00,55.0,54.0,30.19,South,180,5.0,8.0,97,0.00,,,0.00,Rainwise IP-100,2013-08-19 09:56:00,
2013-08-19 06:01:00,55.0,54.0,30.19,WNW,292,6.0,7.0,97,0.00,,,0.00,Rainwise IP-100,2013-08-19 10:01:00,
2013-08-19 06:06:00,55.0,54.0,30.19,WSW,247,6.0,7.0,97,0.00,,,0.00,Rainwise IP-100,2013-08-19 10:06:00,
2013-08-19 06:11:00,56.0,55.0,30.18,South,180,6.0,9.0,97,0.00,,,0.00,Rainwise IP-100,2013-08-19 10:11:00,
2013-08-19 06:16:00,57.0,56.0,30.18,SSE,157,7.0,11.0,96,0.00,,,0.00,Rainwise IP-100,2013-08-19 10:16:00,
2013-08-19 06:21:00,57.0,55.0,30.17,SSE,157,6.0,10.0,94,0.00,,,0.00,Rainwise IP-100,2013-08-19 10:21:00,
2013-08-19 06:26:00,58.0,55.0,30.17,West,270,2.0,10.0,89,0.00,,,0.00,Rainwise IP-100,2013-08-19 10:26:00,
2013-08-19 06:31:00,58.0,56.0,30.17,NW,315,0.0,6.0,93,0.00,,,0.00,Rainwise IP-100,2013-08-19 10:31:00,
2013-08-19 06:36:00,58.0,56.0,30.17,SW,225,5.0,6.0,92,0.00,,,0.00,Rainwise IP-100,2013-08-19 10:36:00,
2013-08-19 06:41:00,59.0,55.0,30.17,SSW,202,5.0,6.0,88,0.00,,,0.00,Rainwise IP-100,2013-08-19 10:41:00,
2013-08-19 06:46:00,59.0,55.0,30.16,SW,225,3.0,5.0,88,0.00,,,0.00,Rainwise IP-100,2013-08-19 10:46:00,
2013-08-19 06:51:00,60.0,56.0,30.16,SW,225,5.0,7.0,86,0.00,,,0.00,Rainwise IP-100,2013-08-19 10:51:00,
2013-08-19 06:56:00,60.0,55.0,30.16,SSW,202,6.0,7.0,85,0.00,,,0.00,Rainwise IP-100,2013-08-19 10:56:00,
2013-08-19 07:01:00,60.0,55.0,30.16,SSE,157,0.0,6.0,84,0.00,,,0.00,Rainwise IP-100,2013-08-19 11:01:00,
2013-08-19 07:06:00,60.0,56.0,30.16,ESE,112,5.0,8.0,86,0.00,,,0.00,Rainwise IP-100,2013-08-19 11:06:00,
2013-08-19 07:11:00,60.0,56.0,30.16,WNW,292,0.0,7.0,87,0.00,,,0.00,Rainwise IP-100,2013-08-19 11:11:00,
2013-08-19 07:16:00,60.0,56.0,30.16,South,180,4.0,6.0,87,0.00,,,0.00,Rainwise IP-100,2013-08-19 11:16:00,
2013-08-19 07:21:00,60.0,57.0,30.16,NW,315,0.0,5.0,90,0.00,,,0.00,Rainwise IP-100,2013-08-19 11:21:00,
2013-08-19 07:26:00,59.0,56.0,30.16,SW,225,3.0,5.0,92,0.00,,,0.00,Rainwise IP-100,2013-08-19 11:26:00,
2013-08-19 07:31:00,59.0,56.0,30.16,SW,225,6.0,6.0,90,0.00,,,0.00,Rainwise IP-100,2013-08-19 11:31:00,
2013-08-19 07:36:00,60.0,56.0,30.16,WNW,292,3.0,6.0,89,0.00,,,0.00,Rainwise IP-100,2013-08-19 11:36:00,
2013-08-19 07:41:00,60.0,57.0,30.17,SW,225,3.0,6.0,93,0.00,,,0.00,Rainwise IP-100,2013-08-19 11:41:00,
2013-08-19 07:46:00,60.0,57.0,30.17,SW,225,3.0,5.0,91,0.00,,,0.00,Rainwise IP-100,2013-08-19 11:46:00,
2013-08-19 07:51:00,60.0,57.0,30.17,SW,225,5.0,6.0,90,0.00,,,0.00,Rainwise IP-100,2013-08-19 11:51:00,
2013-08-19 07:56:00,60.0,56.0,30.17,West,270,3.0,7.0,89,0.00,,,0.00,Rainwise IP-100,2013-08-19 11:56:00,
2013-08-19 08:01:00,61.0,57.0,30.16,SW,225,5.0,7.0,89,0.00,,,0.00,Rainwise IP-100,2013-08-19 12:01:00,
2013-08-19 08:06:00,61.0,57.0,30.16,NW,315,5.0,6.0,89,0.00,,,0.00,Rainwise IP-100,2013-08-19 12:06:00,
2013-08-19 08:11:00,61.0,57.0,30.16,SSE,157,3.0,6.0,87,0.00,,,0.00,Rainwise IP-100,2013-08-19 12:11:00,
2013-08-19 08:16:00,61.0,58.0,30.16,NW,315,6.0,6.0,91,0.00,,,0.00,Rainwise IP-100,2013-08-19 12:16:00,
2013-08-19 08:21:00,62.0,57.0,30.15,SW,225,2.0,6.0,86,0.00,,,0.00,Rainwise IP-100,2013-08-19 12:21:00,
2013-08-19 08:26:00,63.0,59.0,30.15,SW,225,0.0,3.0,88,0.00,,,0.00,Rainwise IP-100,2013-08-19 12:26:00,
2013-08-19 08:31:00,63.0,58.0,30.15,South,180,2.0,5.0,84,0.00,,,0.00,Rainwise IP-100,2013-08-19 12:31:00,
2013-08-19 08:36:00,64.0,58.0,30.15,SW,225,2.0,4.0,82,0.00,,,0.00,Rainwise IP-100,2013-08-19 12:36:00,
2013-08-19 08:41:00,64.0,59.0,30.15,WNW,292,0.0,5.0,85,0.00,,,0.00,Rainwise IP-100,2013-08-19 12:41:00,
2013-08-19 08:46:00,64.0,58.0,30.15,South,180,5.0,6.0,81,0.00,,,0.00,Rainwise IP-100,2013-08-19 12:46:00,
2013-08-19 08:51:00,65.0,59.0,30.14,SE,135,0.0,7.0,82,0.00,,,0.00,Rainwise IP-100,2013-08-19 12:51:00,
2013-08-19 08:56:00,65.0,60.0,30.14,West,270,1.0,2.0,86,0.00,,,0.00,Rainwise IP-100,2013-08-19 12:56:00,
2013-08-19 09:01:00,65.0,60.0,30.15,NW,315,2.0,4.0,85,0.00,,,0.00,Rainwise IP-100,2013-08-19 13:01:00,
2013-08-19 09:06:00,66.0,59.0,30.15,SW,225,3.0,6.0,80,0.00,,,0.00,Rainwise IP-100,2013-08-19 13:06:00,
2013-08-19 09:11:00,68.0,59.0,30.14,SSW,202,3.0,5.0,72,0.00,,,0.00,Rainwise IP-100,2013-08-19 13:11:00,
2013-08-19 09:16:00,69.0,59.0,30.14,SSW,202,4.0,6.0,70,0.00,,,0.00,Rainwise IP-100,2013-08-19 13:16:00,
2013-08-19 09:21:00,69.0,57.0,30.13,SW,225,5.0,6.0,67,0.00,,,0.00,Rainwise IP-100,2013-08-19 13:21:00,
2013-08-19 09:26:00,69.0,57.0,30.13,SW,225,3.0,9.0,67,0.00,,,0.00,Rainwise IP-100,2013-08-19 13:26:00,
2013-08-19 09:31:00,70.0,59.0,30.13,SW,225,3.0,9.0,68,0.00,,,0.00,Rainwise IP-100,2013-08-19 13:31:00,
2013-08-19 09:36:00,70.0,57.0,30.13,SW,225,6.0,9.0,65,0.00,,,0.00,Rainwise IP-100,2013-08-19 13:36:00,
2013-08-19 09:41:00,70.0,57.0,30.13,SW,225,4.0,10.0,65,0.00,,,0.00,Rainwise IP-100,2013-08-19 13:41:00,
2013-08-19 09:46:00,70.0,57.0,30.14,WSW,247,7.0,9.0,63,0.00,,,0.00,Rainwise IP-100,2013-08-19 13:46:00,
2013-08-19 09:51:00,71.0,57.0,30.13,WSW,247,1.0,7.0,63,0.00,,,0.00,Rainwise IP-100,2013-08-19 13:51:00,
2013-08-19 09:56:00,71.0,56.0,30.13,SSW,202,7.0,8.0,61,0.00,,,0.00,Rainwise IP-100,2013-08-19 13:56:00,
2013-08-19 10:01:00,71.0,57.0,30.13,SSW,202,7.0,8.0,62,0.00,,,0.00,Rainwise IP-100,2013-08-19 14:01:00,
2013-08-19 10:06:00,72.0,59.0,30.13,South,180,0.0,8.0,63,0.00,,,0.00,Rainwise IP-100,2013-08-19 14:06:00,
2013-08-19 10:11:00,72.0,57.0,30.13,West,270,6.0,6.0,59,0.00,,,0.00,Rainwise IP-100,2013-08-19 14:11:00,
2013-08-19 10:16:00,72.0,56.0,30.13,WNW,292,3.0,13.0,58,0.00,,,0.00,Rainwise IP-100,2013-08-19 14:16:00,
2013-08-19 10:21:00,72.0,57.0,30.13,SW,225,6.0,9.0,59,0.00,,,0.00,Rainwise IP-100,2013-08-19 14:21:00,
2013-08-19 10:26:00,72.0,54.0,30.13,SSW,202,4.0,8.0,55,0.00,,,0.00,Rainwise IP-100,2013-08-19 14:26:00,
2013-08-19 10:31:00,72.0,54.0,30.13,WNW,292,4.0,10.0,54,0.00,,,0.00,Rainwise IP-100,2013-08-19 14:31:00,
2013-08-19 10:36:00,72.0,54.0,30.13,NNW,337,7.0,10.0,54,0.00,,,0.00,Rainwise IP-100,2013-08-19 14:36:00,
2013-08-19 10:41:00,73.0,57.0,30.13,NE,45,2.0,8.0,57,0.00,,,0.00,Rainwise IP-100,2013-08-19 14:41:00,
2013-08-19 10:46:00,73.0,54.0,30.11,NNE,22,2.0,13.0,53,0.00,,,0.00,Rainwise IP-100,2013-08-19 14:46:00,
2013-08-19 10:51:00,74.0,56.0,30.11,NNE,22,0.0,13.0,53,0.00,,,0.00,Rainwise IP-100,2013-08-19 14:51:00,
2013-08-19 10:56:00,73.0,54.0,30.11,North,360,5.0,9.0,52,0.00,,,0.00,Rainwise IP-100,2013-08-19 14:56:00,
2013-08-19 11:01:00,73.0,54.0,30.12,NW,315,7.0,13.0,53,0.00,,,0.00,Rainwise IP-100,2013-08-19 15:01:00,
2013-08-19 11:06:00,73.0,54.0,30.12,WNW,292,4.0,12.0,51,0.00,,,0.00,Rainwise IP-100,2013-08-19 15:06:00,
2013-08-19 11:11:00,73.0,54.0,30.12,NNW,337,11.0,12.0,51,0.00,,,0.00,Rainwise IP-100,2013-08-19 15:11:00,
2013-08-19 11:16:00,74.0,55.0,30.11,NE,45,5.0,14.0,52,0.00,,,0.00,Rainwise IP-100,2013-08-19 15:16:00,
2013-08-19 11:21:00,74.0,54.0,30.10,NW,315,10.0,13.0,51,0.00,,,0.00,Rainwise IP-100,2013-08-19 15:21:00,
2013-08-19 11:26:00,74.0,56.0,30.10,North,360,12.0,17.0,54,0.00,,,0.00,Rainwise IP-100,2013-08-19 15:26:00,
2013-08-19 11:31:00,74.0,56.0,30.10,NW,315,6.0,15.0,53,0.00,,,0.00,Rainwise IP-100,2013-08-19 15:31:00,
2013-08-19 11:36:00,74.0,54.0,30.10,NNW,337,9.0,15.0,50,0.00,,,0.00,Rainwise IP-100,2013-08-19 15:36:00,
2013-08-19 11:41:00,74.0,55.0,30.11,NW,315,7.0,16.0,52,0.00,,,0.00,Rainwise IP-100,2013-08-19 15:41:00,
2013-08-19 11:46:00,74.0,56.0,30.11,East,90,4.0,13.0,53,0.00,,,0.00,Rainwise IP-100,2013-08-19 15:46:00,
2013-08-19 11:51:00,74.0,54.0,30.11,NW,315,10.0,12.0,50,0.00,,,0.00,Rainwise IP-100,2013-08-19 15:51:00,
2013-08-19 11:56:00,74.0,55.0,30.10,NNW,337,7.0,12.0,52,0.00,,,0.00,Rainwise IP-100,2013-08-19 15:56:00,
2013-08-19 12:01:00,74.0,54.0,30.10,NNW,337,11.0,15.0,51,0.00,,,0.00,Rainwise IP-100,2013-08-19 16:01:00,
2013-08-19 12:06:00,74.0,54.0,30.10,NW,315,12.0,12.0,49,0.00,,,0.00,Rainwise IP-100,2013-08-19 16:06:00,
2013-08-19 12:11:00,74.0,54.0,30.10,NNW,337,9.0,29.0,49,0.00,,,0.00,Rainwise IP-100,2013-08-19 16:11:00,
2013-08-19 12:16:00,74.0,56.0,30.10,North,360,9.0,15.0,53,0.00,,,0.00,Rainwise IP-100,2013-08-19 16:16:00,
2013-08-19 12:21:00,74.0,54.0,30.09,NW,315,8.0,17.0,51,0.00,,,0.00,Rainwise IP-100,2013-08-19 16:21:00,
2013-08-19 12:26:00,74.0,55.0,30.09,NNW,337,2.0,12.0,52,0.00,,,0.00,Rainwise IP-100,2013-08-19 16:26:00,
2013-08-19 12:31:00,74.0,54.0,30.09,NW,315,6.0,12.0,50,0.00,,,0.00,Rainwise IP-100,2013-08-19 16:31:00,
2013-08-19 12:36:00,74.0,54.0,30.09,NNW,337,4.0,12.0,49,0.00,,,0.00,Rainwise IP-100,2013-08-19 16:36:00,
2013-08-19 12:41:00,75.0,56.0,30.09,NNE,22,7.0,13.0,52,0.00,,,0.00,Rainwise IP-100,2013-08-19 16:41:00,
2013-08-19 12:46:00,74.0,54.0,30.09,WNW,292,7.0,17.0,51,0.00,,,0.00,Rainwise IP-100,2013-08-19 16:46:00,
2013-08-19 12:51:00,74.0,54.0,30.09,NW,315,6.0,17.0,51,0.00,,,0.00,Rainwise IP-100,2013-08-19 16:51:00,
2013-08-19 12:56:00,74.0,54.0,30.09,WNW,292,6.0,17.0,50,0.00,,,0.00,Rainwise IP-100,2013-08-19 16:56:00,
2013-08-19 13:01:00,75.0,56.0,30.09,NE,45,1.0,9.0,51,0.00,,,0.00,Rainwise IP-100,2013-08-19 17:01:00,
2013-08-19 13:06:00,75.0,57.0,30.08,NW,315,7.0,13.0,54,0.00,,,0.00,Rainwise IP-100,2013-08-19 17:06:00,
2013-08-19 13:11:00,76.0,57.0,30.09,NNW,337,5.0,15.0,52,0.00,,,0.00,Rainwise IP-100,2013-08-19 17:11:00,
2013-08-19 13:16:00,75.0,55.0,30.09,North,360,3.0,13.0,50,0.00,,,0.00,Rainwise IP-100,2013-08-19 17:16:00,
2013-08-19 13:21:00,76.0,59.0,30.09,ESE,112,5.0,11.0,55,0.00,,,0.00,Rainwise IP-100,2013-08-19 17:21:00,
2013-08-19 13:26:00,76.0,57.0,30.09,NE,45,1.0,9.0,53,0.00,,,0.00,Rainwise IP-100,2013-08-19 17:26:00,
2013-08-19 13:31:00,76.0,56.0,30.09,North,360,10.0,14.0,50,0.00,,,0.00,Rainwise IP-100,2013-08-19 17:31:00,
2013-08-19 13:36:00,75.0,57.0,30.09,NW,315,7.0,13.0,53,0.00,,,0.00,Rainwise IP-100,2013-08-19 17:36:00,
2013-08-19 13:41:00,75.0,57.0,30.09,West,270,7.0,13.0,55,0.00,,,0.00,Rainwise IP-100,2013-08-19 17:41:00,
2013-08-19 13:46:00,75.0,56.0,30.09,NW,315,9.0,13.0,51,0.00,,,0.00,Rainwise IP-100,2013-08-19 17:46:00,
2013-08-19 13:51:00,75.0,58.0,30.09,NNW,337,7.0,11.0,56,0.00,,,0.00,Rainwise IP-100,2013-08-19 17:51:00,
2013-08-19 13:56:00,75.0,56.0,30.09,NNW,337,11.0,12.0,52,0.00,,,0.00,Rainwise IP-100,2013-08-19 17:56:00,
2013-08-19 14:01:00,76.0,58.0,30.08,NW,315,9.0,12.0,54,0.00,,,0.00,Rainwise IP-100,2013-08-19 18:01:00,
2013-08-19 14:06:00,76.0,56.0,30.08,North,360,8.0,11.0,50,0.00,,,0.00,Rainwise IP-100,2013-08-19 18:06:00,
2013-08-19 14:11:00,76.0,57.0,30.08,North,360,10.0,18.0,52,0.00,,,0.00,Rainwise IP-100,2013-08-19 18:11:00,
2013-08-19 14:16:00,76.0,60.0,30.07,NW,315,7.0,15.0,58,0.00,,,0.00,Rainwise IP-100,2013-08-19 18:16:00,
2013-08-19 14:21:00,76.0,57.0,30.07,West,270,2.0,13.0,53,0.00,,,0.00,Rainwise IP-100,2013-08-19 18:21:00,
2013-08-19 14:26:00,76.0,59.0,30.07,NNW,337,7.0,12.0,55,0.00,,,0.00,Rainwise IP-100,2013-08-19 18:26:00,
2013-08-19 14:31:00,76.0,59.0,30.07,NW,315,7.0,11.0,55,0.00,,,0.00,Rainwise IP-100,2013-08-19 18:31:00,
2013-08-19 14:36:00,76.0,58.0,30.07,WNW,292,10.0,13.0,54,0.00,,,0.00,Rainwise IP-100,2013-08-19 18:36:00,
2013-08-19 14:41:00,76.0,57.0,30.07,NW,315,12.0,12.0,52,0.00,,,0.00,Rainwise IP-100,2013-08-19 18:41:00,
2013-08-19 14:46:00,77.0,60.0,30.07,NNW,337,5.0,14.0,56,0.00,,,0.00,Rainwise IP-100,2013-08-19 18:46:00,
2013-08-19 14:51:00,77.0,59.0,30.07,NNW,337,2.0,11.0,54,0.00,,,0.00,Rainwise IP-100,2013-08-19 18:51:00,
2013-08-19 14:56:00,77.0,59.0,30.07,NW,315,3.0,11.0,54,0.00,,,0.00,Rainwise IP-100,2013-08-19 18:56:00,
2013-08-19 15:01:00,77.0,59.0,30.06,North,360,8.0,8.0,53,0.00,,,0.00,Rainwise IP-100,2013-08-19 19:01:00,
2013-08-19 15:06:00,76.0,57.0,30.06,NW,315,6.0,13.0,53,0.00,,,0.00,Rainwise IP-100,2013-08-19 19:06:00,
2013-08-19 15:11:00,76.0,56.0,30.07,North,360,11.0,12.0,51,0.00,,,0.00,Rainwise IP-100,2013-08-19 19:11:00,
2013-08-19 15:16:00,76.0,57.0,30.07,NW,315,9.0,12.0,53,0.00,,,0.00,Rainwise IP-100,2013-08-19 19:16:00,
2013-08-19 15:21:00,76.0,59.0,30.07,NW,315,6.0,12.0,56,0.00,,,0.00,Rainwise IP-100,2013-08-19 19:21:00,
2013-08-19 15:26:00,76.0,57.0,30.07,NW,315,7.0,10.0,53,0.00,,,0.00,Rainwise IP-100,2013-08-19 19:26:00,
2013-08-19 15:31:00,77.0,59.0,30.06,West,270,4.0,10.0,53,0.00,,,0.00,Rainwise IP-100,2013-08-19 19:31:00,
2013-08-19 15:36:00,77.0,57.0,30.06,NW,315,6.0,9.0,51,0.00,,,0.00,Rainwise IP-100,2013-08-19 19:36:00,
2013-08-19 15:41:00,77.0,57.0,30.06,NNW,337,9.0,16.0,51,0.00,,,0.00,Rainwise IP-100,2013-08-19 19:41:00,
2013-08-19 15:46:00,77.0,57.0,30.06,North,360,7.0,13.0,51,0.00,,,0.00,Rainwise IP-100,2013-08-19 19:46:00,
2013-08-19 15:51:00,77.0,56.0,30.06,NW,315,9.0,12.0,49,0.00,,,0.00,Rainwise IP-100,2013-08-19 19:51:00,
2013-08-19 15:56:00,77.0,58.0,30.06,North,360,7.0,14.0,52,0.00,,,0.00,Rainwise IP-100,2013-08-19 19:56:00,
2013-08-19 16:01:00,77.0,58.0,30.06,NNW,337,8.0,16.0,52,0.00,,,0.00,Rainwise IP-100,2013-08-19 20:01:00,
2013-08-19 16:06:00,77.0,57.0,30.06,North,360,9.0,17.0,50,0.00,,,0.00,Rainwise IP-100,2013-08-19 20:06:00,
2013-08-19 16:11:00,77.0,57.0,30.06,NNW,337,7.0,13.0,50,0.00,,,0.00,Rainwise IP-100,2013-08-19 20:11:00,
2013-08-19 16:16:00,76.0,57.0,30.06,NW,315,10.0,16.0,52,0.00,,,0.00,Rainwise IP-100,2013-08-19 20:16:00,
2013-08-19 16:21:00,77.0,58.0,30.05,North,360,7.0,15.0,52,0.00,,,0.00,Rainwise IP-100,2013-08-19 20:21:00,
2013-08-19 16:26:00,77.0,59.0,30.05,NNW,337,6.0,13.0,54,0.00,,,0.00,Rainwise IP-100,2013-08-19 20:26:00,
2013-08-19 16:31:00,77.0,59.0,30.05,NW,315,9.0,13.0,53,0.00,,,0.00,Rainwise IP-100,2013-08-19 20:31:00,
2013-08-19 16:36:00,77.0,58.0,30.05,North,360,6.0,14.0,52,0.00,,,0.00,Rainwise IP-100,2013-08-19 20:36:00,
2013-08-19 16:41:00,77.0,59.0,30.06,North,360,6.0,12.0,53,0.00,,,0.00,Rainwise IP-100,2013-08-19 20:41:00,
2013-08-19 16:46:00,77.0,57.0,30.06,NNW,337,10.0,10.0,50,0.00,,,0.00,Rainwise IP-100,2013-08-19 20:46:00,
2013-08-19 16:51:00,77.0,57.0,30.06,NW,315,9.0,13.0,51,0.00,,,0.00,Rainwise IP-100,2013-08-19 20:51:00,
2013-08-19 16:56:00,77.0,59.0,30.06,NW,315,6.0,11.0,54,0.00,,,0.00,Rainwise IP-100,2013-08-19 20:56:00,
2013-08-19 17:01:00,77.0,59.0,30.06,NW,315,6.0,12.0,53,0.00,,,0.00,Rainwise IP-100,2013-08-19 21:01:00,
2013-08-19 17:06:00,77.0,58.0,30.06,North,360,6.0,9.0,52,0.00,,,0.00,Rainwise IP-100,2013-08-19 21:06:00,
2013-08-19 17:11:00,77.0,58.0,30.06,North,360,7.0,9.0,52,0.00,,,0.00,Rainwise IP-100,2013-08-19 21:11:00,
2013-08-19 17:16:00,76.0,57.0,30.06,NW,315,6.0,13.0,53,0.00,,,0.00,Rainwise IP-100,2013-08-19 21:16:00,
2013-08-19 17:21:00,76.0,56.0,30.07,North,360,8.0,13.0,51,0.00,,,0.00,Rainwise IP-100,2013-08-19 21:21:00,
2013-08-19 17:26:00,76.0,57.0,30.07,NW,315,7.0,13.0,53,0.00,,,0.00,Rainwise IP-100,2013-08-19 21:26:00,
2013-08-19 17:31:00,76.0,58.0,30.07,NW,315,5.0,12.0,54,0.00,,,0.00,Rainwise IP-100,2013-08-19 21:31:00,
2013-08-19 17:36:00,76.0,58.0,30.07,NW,315,9.0,12.0,54,0.00,,,0.00,Rainwise IP-100,2013-08-19 21:36:00,
2013-08-19 17:41:00,76.0,59.0,30.07,NW,315,6.0,13.0,55,0.00,,,0.00,Rainwise IP-100,2013-08-19 21:41:00,
2013-08-19 17:46:00,76.0,57.0,30.07,North,360,7.0,10.0,53,0.00,,,0.00,Rainwise IP-100,2013-08-19 21:46:00,
2013-08-19 17:51:00,76.0,57.0,30.07,NNW,337,6.0,10.0,53,0.00,,,0.00,Rainwise IP-100,2013-08-19 21:51:00,
2013-08-19 17:56:00,76.0,58.0,30.07,NW,315,6.0,10.0,54,0.00,,,0.00,Rainwise IP-100,2013-08-19 21:56:00,
2013-08-19 18:01:00,76.0,59.0,30.07,NNW,337,10.0,10.0,55,0.00,,,0.00,Rainwise IP-100,2013-08-19 22:01:00,
2013-08-19 18:06:00,76.0,59.0,30.07,NNW,337,7.0,12.0,55,0.00,,,0.00,Rainwise IP-100,2013-08-19 22:06:00,
2013-08-19 18:11:00,76.0,59.0,30.07,North,360,7.0,9.0,55,0.00,,,0.00,Rainwise IP-100,2013-08-19 22:11:00,
2013-08-19 18:16:00,75.0,57.0,30.07,NW,315,6.0,10.0,55,0.00,,,0.00,Rainwise IP-100,2013-08-19 22:16:00,
2013-08-19 18:21:00,76.0,59.0,30.07,NNW,337,5.0,9.0,56,0.00,,,0.00,Rainwise IP-100,2013-08-19 22:21:00,
2013-08-19 18:26:00,76.0,59.0,30.07,NNW,337,2.0,7.0,56,0.00,,,0.00,Rainwise IP-100,2013-08-19 22:26:00,
2013-08-19 18:31:00,76.0,59.0,30.07,North,360,4.0,6.0,56,0.00,,,0.00,Rainwise IP-100,2013-08-19 22:31:00,
2013-08-19 18:37:00,76.0,59.0,30.07,NNW,337,3.0,40.0,56,0.00,,,0.00,Rainwise IP-100,2013-08-19 22:37:00,
2013-08-19 18:42:00,76.0,59.0,30.07,North,360,1.0,5.0,55,0.00,,,0.00,Rainwise IP-100,2013-08-19 22:42:00,
2013-08-19 18:47:00,76.0,60.0,30.07,NW,315,0.0,4.0,58,0.00,,,0.00,Rainwise IP-100,2013-08-19 22:47:00,
2013-08-19 18:52:00,76.0,60.0,30.07,NW,315,0.0,3.0,59,0.00,,,0.00,Rainwise IP-100,2013-08-19 22:52:00,
2013-08-19 18:57:00,76.0,61.0,30.07,NW,315,3.0,3.0,61,0.00,,,0.00,Rainwise IP-100,2013-08-19 22:57:00,
2013-08-19 19:02:00,76.0,61.0,30.07,NW,315,1.0,3.0,61,0.00,,,0.00,Rainwise IP-100,2013-08-19 23:02:00,
2013-08-19 19:07:00,75.0,59.0,30.07,North,360,0.0,4.0,58,0.00,,,0.00,Rainwise IP-100,2013-08-19 23:07:00,
2013-08-19 19:12:00,74.0,60.0,30.08,NW,315,3.0,7.0,61,0.00,,,0.00,Rainwise IP-100,2013-08-19 23:12:00,
2013-08-19 19:17:00,74.0,60.0,30.08,North,360,4.0,5.0,62,0.00,,,0.00,Rainwise IP-100,2013-08-19 23:17:00,
2013-08-19 19:22:00,73.0,60.0,30.08,NNW,337,2.0,6.0,63,0.00,,,0.00,Rainwise IP-100,2013-08-19 23:22:00,
2013-08-19 19:27:00,73.0,60.0,30.08,NNW,337,1.0,4.0,64,0.00,,,0.00,Rainwise IP-100,2013-08-19 23:27:00,
2013-08-19 19:32:00,72.0,60.0,30.09,NNW,337,0.0,2.0,66,0.00,,,0.00,Rainwise IP-100,2013-08-19 23:32:00,
2013-08-19 19:37:00,71.0,61.0,30.09,ENE,67,2.0,2.0,71,0.00,,,0.00,Rainwise IP-100,2013-08-19 23:37:00,
2013-08-19 19:42:00,70.0,60.0,30.09,ENE,67,2.0,3.0,72,0.00,,,0.00,Rainwise IP-100,2013-08-19 23:42:00,
2013-08-19 19:47:00,69.0,60.0,30.09,ENE,67,0.0,3.0,74,0.00,,,0.00,Rainwise IP-100,2013-08-19 23:47:00,
2013-08-19 19:52:00,69.0,60.0,30.10,ENE,67,0.0,1.0,74,0.00,,,0.00,Rainwise IP-100,2013-08-19 23:52:00,
2013-08-19 19:57:00,69.0,60.0,30.10,ENE,67,0.0,0.0,74,0.00,,,0.00,Rainwise IP-100,2013-08-19 23:57:00,
2013-08-19 20:02:00,68.0,60.0,30.11,ENE,67,0.0,0.0,75,0.00,,,0.00,Rainwise IP-100,2013-08-20 00:02:00,
2013-08-19 20:07:00,68.0,60.0,30.11,ENE,67,1.0,2.0,77,0.00,,,0.00,Rainwise IP-100,2013-08-20 00:07:00,
2013-08-19 20:12:00,68.0,61.0,30.11,ENE,67,0.0,20.0,78,0.00,,,0.00,Rainwise IP-100,2013-08-20 00:12:00,
2013-08-19 20:17:00,67.0,60.0,30.11,ENE,67,0.0,1.0,79,0.00,,,0.00,Rainwise IP-100,2013-08-20 00:17:00,
2013-08-19 20:22:00,67.0,61.0,30.11,South,180,2.0,3.0,81,0.00,,,0.00,Rainwise IP-100,2013-08-20 00:22:00,
2013-08-19 20:27:00,67.0,61.0,30.11,SSE,157,4.0,4.0,82,0.00,,,0.00,Rainwise IP-100,2013-08-20 00:27:00,
2013-08-19 20:32:00,67.0,62.0,30.11,SE,135,4.0,5.0,83,0.00,,,0.00,Rainwise IP-100,2013-08-20 00:32:00,
2013-08-19 20:37:00,66.0,60.0,30.11,SE,135,4.0,5.0,83,0.00,,,0.00,Rainwise IP-100,2013-08-20 00:37:00,
2013-08-19 20:42:00,66.0,60.0,30.11,SE,135,5.0,5.0,83,0.00,,,0.00,Rainwise IP-100,2013-08-20 00:42:00,
2013-08-19 20:47:00,66.0,61.0,30.12,SE,135,4.0,5.0,84,0.00,,,0.00,Rainwise IP-100,2013-08-20 00:47:00,
2013-08-19 20:52:00,66.0,61.0,30.12,SE,135,5.0,6.0,85,0.00,,,0.00,Rainwise IP-100,2013-08-20 00:52:00,
2013-08-19 20:57:00,65.0,61.0,30.12,SE,135,0.0,6.0,88,0.00,,,0.00,Rainwise IP-100,2013-08-20 00:57:00,
2013-08-19 21:02:00,64.0,60.0,30.13,South,180,0.0,3.0,89,0.00,,,0.00,Rainwise IP-100,2013-08-20 01:02:00,
2013-08-19 21:07:00,64.0,61.0,30.13,South,180,3.0,3.0,91,0.00,,,0.00,Rainwise IP-100,2013-08-20 01:07:00,
2013-08-19 21:12:00,63.0,61.0,30.13,SW,225,3.0,4.0,93,0.00,,,0.00,Rainwise IP-100,2013-08-20 01:12:00,
2013-08-19 21:17:00,63.0,61.0,30.13,SW,225,3.0,5.0,94,0.00,,,0.00,Rainwise IP-100,2013-08-20 01:17:00,
2013-08-19 21:22:00,63.0,61.0,30.13,SSW,202,3.0,6.0,95,0.00,,,0.00,Rainwise IP-100,2013-08-20 01:22:00,
2013-08-19 21:27:00,63.0,61.0,30.13,South,180,4.0,5.0,93,0.00,,,0.00,Rainwise IP-100,2013-08-20 01:27:00,
2013-08-19 21:32:00,63.0,60.0,30.13,SSE,157,4.0,6.0,92,0.00,,,0.00,Rainwise IP-100,2013-08-20 01:32:00,
2013-08-19 21:37:00,63.0,61.0,30.13,WSW,247,3.0,6.0,93,0.00,,,0.00,Rainwise IP-100,2013-08-20 01:37:00,
2013-08-19 21:42:00,63.0,61.0,30.13,SSE,157,4.0,6.0,94,0.00,,,0.00,Rainwise IP-100,2013-08-20 01:42:00,
2013-08-19 21:47:00,62.0,60.0,30.13,SW,225,2.0,5.0,95,0.00,,,0.00,Rainwise IP-100,2013-08-20 01:47:00,
2013-08-19 21:52:00,62.0,61.0,30.13,SW,225,5.0,5.0,96,0.00,,,0.00,Rainwise IP-100,2013-08-20 01:52:00,
2013-08-19 21:57:00,62.0,61.0,30.13,SW,225,4.0,6.0,97,0.00,,,0.00,Rainwise IP-100,2013-08-20 01:57:00,
2013-08-19 22:02:00,62.0,60.0,30.13,SW,225,6.0,7.0,94,0.00,,,0.00,Rainwise IP-100,2013-08-20 02:02:00,
2013-08-19 22:07:00,63.0,60.0,30.13,SSW,202,5.0,7.0,92,0.00,,,0.00,Rainwise IP-100,2013-08-20 02:07:00,
2013-08-19 22:12:00,63.0,60.0,30.13,SSW,202,4.0,7.0,92,0.00,,,0.00,Rainwise IP-100,2013-08-20 02:12:00,
2013-08-19 22:17:00,63.0,60.0,30.13,SSE,157,7.0,8.0,92,0.00,,,0.00,Rainwise IP-100,2013-08-20 02:17:00,
2013-08-19 22:22:00,63.0,61.0,30.13,SW,225,2.0,7.0,93,0.00,,,0.00,Rainwise IP-100,2013-08-20 02:22:00,
2013-08-19 22:27:00,62.0,60.0,30.13,West,270,1.0,5.0,94,0.00,,,0.00,Rainwise IP-100,2013-08-20 02:27:00,
2013-08-19 22:32:00,62.0,61.0,30.13,SSW,202,5.0,7.0,96,0.00,,,0.00,Rainwise IP-100,2013-08-20 02:32:00,
2013-08-19 22:37:00,62.0,60.0,30.13,SW,225,4.0,7.0,95,0.00,,,0.00,Rainwise IP-100,2013-08-20 02:37:00,
2013-08-19 22:42:00,62.0,60.0,30.13,SW,225,1.0,6.0,95,0.00,,,0.00,Rainwise IP-100,2013-08-20 02:42:00,
2013-08-19 22:47:00,61.0,60.0,30.13,SW,225,0.0,3.0,97,0.00,,,0.00,Rainwise IP-100,2013-08-20 02:47:00,
2013-08-19 22:52:00,61.0,60.0,30.13,SW,225,0.0,0.0,98,0.00,,,0.00,Rainwise IP-100,2013-08-20 02:52:00,
2013-08-19 22:57:00,60.0,59.0,30.13,SW,225,3.0,5.0,98,0.00,,,0.00,Rainwise IP-100,2013-08-20 02:57:00,
2013-08-19 23:02:00,60.0,59.0,30.14,SW,225,2.0,4.0,98,0.00,,,0.00,Rainwise IP-100,2013-08-20 03:02:00,
2013-08-19 23:07:00,60.0,59.0,30.14,South,180,5.0,6.0,98,0.00,,,0.00,Rainwise IP-100,2013-08-20 03:07:00,
2013-08-19 23:12:00,61.0,60.0,30.14,South,180,4.0,6.0,98,0.00,,,0.00,Rainwise IP-100,2013-08-20 03:12:00,
2013-08-19 23:17:00,61.0,60.0,30.13,South,180,4.0,6.0,97,0.00,,,0.00,Rainwise IP-100,2013-08-20 03:17:00,
2013-08-19 23:22:00,61.0,60.0,30.13,South,180,6.0,6.0,97,0.00,,,0.00,Rainwise IP-100,2013-08-20 03:22:00,
2013-08-19 23:27:00,61.0,60.0,30.13,South,180,3.0,6.0,97,0.00,,,0.00,Rainwise IP-100,2013-08-20 03:27:00,
2013-08-19 23:32:00,61.0,60.0,30.13,SW,225,2.0,5.0,97,0.00,,,0.00,Rainwise IP-100,2013-08-20 03:32:00,
2013-08-19 23:37:00,61.0,60.0,30.13,South,180,5.0,5.0,98,0.00,,,0.00,Rainwise IP-100,2013-08-20 03:37:00,
2013-08-19 23:42:00,61.0,60.0,30.13,SSW,202,5.0,6.0,97,0.00,,,0.00,Rainwise IP-100,2013-08-20 03:42:00,
2013-08-19 23:47:00,61.0,60.0,30.13,SW,225,2.0,6.0,96,0.00,,,0.00,Rainwise IP-100,2013-08-20 03:47:00,
2013-08-19 23:52:00,61.0,60.0,30.13,SSW,202,5.0,6.0,98,0.00,,,0.00,Rainwise IP-100,2013-08-20 03:52:00,
2013-08-19 23:57:00,61.0,60.0,30.13,SW,225,3.0,6.0,98,0.00,,,0.00,Rainwise IP-100,2013-08-20 03:57:00,